FW1632 Weather Reports


time (UTC)temp
C
wind
direction
speed
KPH
gust
KPH
rain 1hr
cm
rain 24hr
cm
rain mn
cm
humidity
%
barometer
mb
20260507040031 12 319 3.2 12.9 0.00 0.00 0.00 80 1019.9
20260507034537 12 30 4.8 16.1 0.00 0.00 0.00 80 1019.8
20260507033029 13 338 3.2 9.7 0.00 0.00 0.00 81 1019.6
20260507031529 13 72 3.2 9.7 0.00 0.00 0.00 82 1019.4
20260507030030 14 72 1.6 9.7 0.00 0.00 0.00 82 1019.3
20260507024528 15 67 0.0 6.4 0.00 0.00 0.00 80 1019.2
20260507023027 15 79 1.6 6.4 0.00 0.00 0.00 80 1019.1
20260507021529 15 76 1.6 9.7 0.00 0.00 0.00 79 1019.0
20260507020038 15 56 0.0 8.0 0.00 0.00 0.00 79 1019.1
20260507014525 16 91 3.2 14.5 0.00 0.00 0.00 78 1019.2
20260507013040 16 86 3.2 9.7 0.00 0.00 0.00 79 1019.1
20260507011525 17 73 4.8 9.7 0.00 0.00 0.00 78 1019.1
20260507010033 17 74 4.8 12.9 0.00 0.00 0.00 77 1019.2
20260507004524 17 57 1.6 11.3 0.00 0.00 0.00 78 1019.0
20260507003023 17 69 4.8 9.7 0.00 0.00 0.00 78 1019.0
20260507001528 18 95 1.6 9.7 0.00 0.00 0.00 76 1019.1
20260507000023 18 25 1.6 8.0 0.00 0.00 0.00 75 1019.0
20260506234528 18 131 0.0 3.2 0.00 0.00 0.00 76 1019.0
20260506233018 18 150 1.6 4.8 0.00 0.00 0.00 76 1019.0
20260506231517 18 139 1.6 6.4 0.00 0.00 0.00 78 1019.1
20260506230016 17 88 1.6 11.3 0.00 0.00 0.00 77 1019.1
20260506224517 17 97 1.6 9.7 0.00 0.00 0.00 75 1019.2
20260506223015 18 111 4.8 14.5 0.00 0.00 0.00 76 1019.4
20260506221514 17 94 6.4 14.5 0.00 0.00 0.00 77 1019.4
20260506220022 17 92 4.8 14.5 0.00 0.00 0.00 77 1019.4
20260506214512 17 90 3.2 8.0 0.00 0.00 0.00 76 1019.4
20260506213011 17 80 8.0 14.5 0.00 0.00 0.00 77 1019.3
20260506211519 17 73 3.2 16.1 0.00 0.00 0.00 76 1019.6
20260506210012 17 86 6.4 12.9 0.00 0.00 0.00 77 1019.7
20260506204508 17 53 1.6 8.0 0.00 0.00 0.00 77 1019.8
20260506203008 17 338 3.2 9.7 0.00 0.00 0.00 77 1019.5
20260506201507 16 186 6.4 12.9 0.00 0.00 0.00 78 1019.6
20260506200010 17 121 8.0 14.5 0.00 0.00 0.00 78 1019.8
20260506194505 17 177 4.8 16.1 0.00 0.00 0.00 79 1019.9
20260506193004 16 136 6.4 12.9 0.00 0.00 0.00 81 1020.0
20260506191503 16 240 6.4 14.5 0.00 0.00 0.00 81 1020.0
20260506190100 16 198 4.8 11.3 0.00 0.00 0.00 82 1020.0
20260506184610 15 222 3.2 12.9 0.00 0.00 0.00 83 1019.9
20260506183054 15 207 3.2 16.1 0.00 0.00 0.00 84 1019.7
20260506181551 14 180 3.2 9.7 0.00 0.00 0.00 85 1019.7
20260506180047 13 272 3.2 14.5 0.00 0.00 0.00 85 1019.9
20260506174547 13 189 6.4 12.9 0.00 0.00 0.00 86 1020.0
20260506173046 13 155 4.8 9.7 0.00 0.00 0.00 88 1019.8
20260506171548 13 78 4.8 8.0 0.00 0.00 0.00 88 1019.6
20260506170040 12 87 6.4 12.9 0.00 0.00 0.00 89 1019.6
20260506164551 12 261 0.0 6.4 0.00 0.00 0.00 90 1019.6
20260506163041 12 243 4.8 9.7 0.00 0.00 0.00 89 1019.8
20260506161537 12 264 4.8 11.3 0.00 0.00 0.00 88 1019.6
20260506160041 13 192 0.0 6.4 0.00 0.00 0.00 88 1019.5
20260506154547 12 161 1.6 6.4 0.00 0.00 0.00 91 1019.2
20260506153036 11 128 4.8 11.3 0.00 0.00 0.00 91 1019.0
20260506151533 11 134 4.8 8.0 0.00 0.00 0.00 91 1019.1
20260506150030 11 321 3.2 8.0 0.00 0.00 0.00 91 1019.6
20260506144531 11 280 3.2 8.0 0.00 0.00 0.00 91 1019.5
20260506143033 11 314 6.4 12.9 0.00 0.00 0.00 90 1019.4
20260506141521 11 269 0.0 8.0 0.00 0.00 0.00 90 1019.1
20260506140019 11 306 0.0 4.8 0.00 0.00 0.00 91 1018.7
20260506134517 11 10 1.6 6.4 0.00 0.00 0.00 91 1018.7
20260506133016 11 302 1.6 6.4 0.00 0.00 0.00 91 1018.7
20260506131517 11 55 1.6 3.2 0.00 0.00 0.00 92 1018.6
20260506130014 11 57 0.0 4.8 0.00 0.00 0.00 91 1018.3
20260506124508 11 107 0.0 0.0 0.00 0.00 0.00 91 1018.1
20260506123007 11 355 1.6 3.2 0.00 0.00 0.00 90 1018.0
20260506121505 12 338 0.0 0.0 0.00 0.00 0.00 89 1018.1
20260506120005 12 337 0.0 0.0 0.00 0.00 0.00 89 1018.1
20260506114503 12 336 0.0 3.2 0.00 0.00 0.00 89 1017.9
20260506113110 12 344 0.0 0.0 0.00 0.00 0.00 88 1017.8
20260506111559 12 344 0.0 3.2 0.00 0.00 0.00 88 1017.7
20260506110057 12 344 0.0 1.6 0.00 0.00 0.00 89 1017.7
20260506104556 12 344 0.0 0.0 0.00 0.00 0.00 89 1017.4
20260506103054 12 344 0.0 0.0 0.00 0.00 0.00 89 1017.2
20260506101554 12 344 0.0 0.0 0.00 0.00 0.00 89 1017.2
20260506100050 12 344 0.0 3.2 0.00 0.00 0.00 89 1017.1
20260506094550 12 343 0.0 0.0 0.00 0.00 0.00 88 1016.9
20260506093051 13 342 0.0 0.0 0.00 0.00 0.00 88 1016.9
20260506091547 13 342 0.0 0.0 0.00 0.00 0.00 88 1016.8
20260506090046 13 342 0.0 3.2 0.00 0.00 0.00 87 1016.9
20260506084545 13 336 0.0 0.0 0.00 0.00 0.00 87 1016.7
20260506083046 13 336 0.0 3.2 0.00 0.00 0.00 87 1016.7
20260506081546 13 336 0.0 3.2 0.00 0.00 0.00 87 1016.7
20260506073037 13 336 0.0 3.2 0.00 0.00 0.00 84 1016.5
20260506071544 13 12 0.0 6.4 0.00 0.00 0.00 84 1016.5
20260506061534 13 306 0.0 3.2 0.00 0.00 0.00 86 1016.2
20260506044535 12 306 0.0 0.0 0.00 0.00 0.00 88 1015.8
20260506043025 12 306 0.0 1.6 0.00 0.00 0.00 87 1015.7
20260506041525 12 306 1.6 3.2 0.00 0.00 0.00 87 1015.5